Voltar ao catálogo

STARLINK-2658

AtivoComunicaçõesVLEO
NORAD 48473·PAYLOAD·🇺🇸 United States

Lançado May 9, 2021 de Cape Canaveral Space Force Station

Loading…

Próximas Passagens (próximas 24 horas)

TLE

AtualizadoSource: CelesTrak SupGP

Época: Sep 14, 2026, 21:26 UTC

1 48473C 21040AX  26257.89354167  .00024105  00000+0  77496-3 0  2572
2 48473  53.1599  30.4950 0000917  88.4126 100.0345 15.31697986    16

Acompanhe STARLINK-2658 em tempo real com AllMySat

Download on the App Store